Time,TemperatureF,DewpointF,PressureIn,WindDirection,WindDirectionDegrees,WindSpeedMPH,WindSpeedGustMPH,Humidity,HourlyPrecipIn,Conditions,Clouds,dailyrainin,SolarRadiationWatts/m^2,SoftwareType,DateUTC
2013-07-04 00:22:00,70.0,45.0,-100.00,SW,220,6.0,9.0,41,-99.99,,,0.00,1.000000,,2013-07-04 06:22:00,
2013-07-04 00:34:00,70.0,45.0,-100.00,SW,220,6.0,9.0,41,-99.99,,,0.00,1.000000,,2013-07-04 06:34:00,
2013-07-04 00:43:00,70.0,45.0,-100.00,SW,220,6.0,9.0,41,-99.99,,,0.00,1.000000,,2013-07-04 06:43:00,
2013-07-04 00:52:00,70.0,45.0,-100.00,SW,220,6.0,9.0,41,-99.99,,,0.00,1.000000,,2013-07-04 06:52:00,
2013-07-04 01:22:00,66.0,46.0,-100.00,NNW,335,2.0,8.0,49,0.00,,,0.00,1.000000,,2013-07-04 07:22:00,
2013-07-04 01:34:00,66.0,46.0,-100.00,NNW,335,2.0,8.0,49,0.00,,,0.00,1.000000,,2013-07-04 07:34:00,
2013-07-04 01:43:00,66.0,46.0,-100.00,NNW,335,2.0,8.0,49,0.00,,,0.00,1.000000,,2013-07-04 07:43:00,
2013-07-04 01:52:00,66.0,46.0,-100.00,NNW,335,2.0,8.0,49,0.00,,,0.00,1.000000,,2013-07-04 07:52:00,
2013-07-04 02:21:00,64.0,46.0,-100.00,WSW,241,3.0,7.0,52,0.00,,,0.00,1.000000,,2013-07-04 08:21:00,
2013-07-04 02:33:00,64.0,46.0,-100.00,WSW,241,3.0,7.0,52,0.00,,,0.00,1.000000,,2013-07-04 08:33:00,
2013-07-04 02:42:00,64.0,46.0,-100.00,WSW,241,3.0,7.0,52,0.00,,,0.00,1.000000,,2013-07-04 08:42:00,
2013-07-04 02:52:00,64.0,46.0,-100.00,WSW,241,3.0,7.0,52,0.00,,,0.00,1.000000,,2013-07-04 08:52:00,
2013-07-04 03:22:00,60.0,46.0,-100.00,NW,317,2.0,6.0,60,0.00,,,0.00,1.000000,,2013-07-04 09:22:00,
2013-07-04 03:32:00,60.0,46.0,-100.00,NW,317,2.0,6.0,60,0.00,,,0.00,1.000000,,2013-07-04 09:32:00,
2013-07-04 03:42:00,60.0,46.0,-100.00,NW,317,2.0,6.0,60,0.00,,,0.00,1.000000,,2013-07-04 09:42:00,
2013-07-04 03:52:00,60.0,46.0,-100.00,NW,317,2.0,6.0,60,0.00,,,0.00,1.000000,,2013-07-04 09:52:00,
2013-07-04 04:33:00,58.0,45.0,-100.00,NNE,19,4.0,6.0,63,0.00,,,0.00,1.000000,,2013-07-04 10:33:00,
2013-07-04 04:42:00,58.0,45.0,-100.00,NNE,19,4.0,6.0,63,0.00,,,0.00,1.000000,,2013-07-04 10:42:00,
2013-07-04 04:53:00,58.0,45.0,-100.00,NNE,19,4.0,6.0,63,0.00,,,0.00,1.000000,,2013-07-04 10:53:00,
2013-07-04 05:33:00,59.0,45.0,-100.00,North,5,6.0,9.0,60,0.00,,,0.00,1.000000,,2013-07-04 11:33:00,
2013-07-04 05:43:00,59.0,45.0,-100.00,North,5,6.0,9.0,60,0.00,,,0.00,1.000000,,2013-07-04 11:43:00,
2013-07-04 05:53:00,59.0,45.0,-100.00,North,5,6.0,9.0,60,0.00,,,0.00,1.000000,,2013-07-04 11:53:00,
2013-07-04 06:43:00,56.0,44.0,-100.00,North,9,3.0,9.0,65,0.00,,,0.00,2.000000,,2013-07-04 12:43:00,
2013-07-04 06:52:00,56.0,44.0,-100.00,North,9,3.0,9.0,65,0.00,,,0.00,2.000000,,2013-07-04 12:52:00,
2013-07-04 07:33:00,60.0,47.0,-100.00,NNE,19,6.0,9.0,61,0.00,,,0.00,64.000000,,2013-07-04 13:33:00,
2013-07-04 07:43:00,60.0,47.0,-100.00,NNE,19,6.0,9.0,61,0.00,,,0.00,64.000000,,2013-07-04 13:43:00,
2013-07-04 07:53:00,60.0,47.0,-100.00,NNE,19,6.0,9.0,61,0.00,,,0.00,64.000000,,2013-07-04 13:53:00,
2013-07-04 08:43:00,62.0,47.0,-100.00,ENE,74,5.0,10.0,57,0.00,,,0.00,158.000000,,2013-07-04 14:43:00,
2013-07-04 08:53:00,62.0,47.0,-100.00,ENE,74,5.0,10.0,57,0.00,,,0.00,158.000000,,2013-07-04 14:53:00,
2013-07-04 09:33:00,71.0,49.0,-100.00,NE,56,3.0,7.0,45,0.00,,,0.00,380.000000,,2013-07-04 15:33:00,
2013-07-04 09:43:00,71.0,49.0,-100.00,NE,56,3.0,7.0,45,0.00,,,0.00,380.000000,,2013-07-04 15:43:00,
2013-07-04 09:52:00,71.0,49.0,-100.00,NE,56,3.0,7.0,45,0.00,,,0.00,380.000000,,2013-07-04 15:52:00,
2013-07-04 10:22:00,75.0,48.0,-100.00,NE,52,4.0,7.0,38,0.00,,,0.00,484.000000,,2013-07-04 16:22:00,
2013-07-04 10:33:00,75.0,48.0,-100.00,NE,52,4.0,7.0,38,0.00,,,0.00,484.000000,,2013-07-04 16:33:00,
2013-07-04 10:42:00,75.0,48.0,-100.00,NE,52,4.0,7.0,38,0.00,,,0.00,484.000000,,2013-07-04 16:42:00,
2013-07-04 10:52:00,75.0,48.0,-100.00,NE,52,4.0,7.0,38,0.00,,,0.00,484.000000,,2013-07-04 16:52:00,
2013-07-04 11:22:00,77.0,49.0,-100.00,SW,223,5.0,12.0,37,0.00,,,0.00,718.000000,,2013-07-04 17:22:00,
2013-07-04 11:33:00,77.0,49.0,-100.00,SW,223,5.0,12.0,37,0.00,,,0.00,718.000000,,2013-07-04 17:33:00,
2013-07-04 11:43:00,77.0,49.0,-100.00,SW,223,5.0,12.0,37,0.00,,,0.00,718.000000,,2013-07-04 17:43:00,
2013-07-04 11:53:00,77.0,49.0,-100.00,SW,223,5.0,12.0,37,0.00,,,0.00,718.000000,,2013-07-04 17:53:00,
2013-07-04 12:22:00,82.0,48.0,-100.00,South,173,6.0,10.0,31,0.00,,,0.00,851.000000,,2013-07-04 18:22:00,
2013-07-04 12:33:00,82.0,48.0,-100.00,South,173,6.0,10.0,31,0.00,,,0.00,851.000000,,2013-07-04 18:33:00,
2013-07-04 12:43:00,82.0,48.0,-100.00,South,173,6.0,10.0,31,0.00,,,0.00,851.000000,,2013-07-04 18:43:00,
2013-07-04 12:52:00,82.0,48.0,-100.00,South,173,6.0,10.0,31,0.00,,,0.00,851.000000,,2013-07-04 18:52:00,
2013-07-04 13:22:00,82.0,49.0,-100.00,SE,143,5.0,13.0,32,0.00,,,0.00,711.000000,,2013-07-04 19:22:00,
2013-07-04 13:33:00,82.0,49.0,-100.00,SE,143,5.0,13.0,32,0.00,,,0.00,711.000000,,2013-07-04 19:33:00,
2013-07-04 13:43:00,82.0,49.0,-100.00,SE,143,5.0,13.0,32,0.00,,,0.00,711.000000,,2013-07-04 19:43:00,
2013-07-04 13:53:00,82.0,49.0,-100.00,SE,143,5.0,13.0,32,0.00,,,0.00,711.000000,,2013-07-04 19:53:00,
2013-07-04 14:22:00,80.0,49.0,-100.00,North,0,5.0,14.0,34,0.00,,,0.00,430.000000,,2013-07-04 20:22:00,
2013-07-04 14:33:00,80.0,49.0,-100.00,North,0,5.0,14.0,34,0.00,,,0.00,430.000000,,2013-07-04 20:33:00,
2013-07-04 14:42:00,80.0,49.0,-100.00,North,0,5.0,14.0,34,0.00,,,0.00,430.000000,,2013-07-04 20:42:00,
2013-07-04 14:53:00,80.0,49.0,-100.00,North,0,5.0,14.0,34,0.00,,,0.00,430.000000,,2013-07-04 20:53:00,
2013-07-04 15:22:00,84.0,48.0,-100.00,NNE,30,9.0,14.0,29,0.00,,,0.00,863.000000,,2013-07-04 21:22:00,
2013-07-04 15:32:00,84.0,48.0,-100.00,NNE,30,9.0,14.0,29,0.00,,,0.00,863.000000,,2013-07-04 21:32:00,
2013-07-04 15:42:00,84.0,48.0,-100.00,NNE,30,9.0,14.0,29,0.00,,,0.00,863.000000,,2013-07-04 21:42:00,
2013-07-04 15:52:00,84.0,48.0,-100.00,NNE,30,9.0,14.0,29,0.00,,,0.00,863.000000,,2013-07-04 21:52:00,
2013-07-04 16:33:00,86.0,47.0,-100.00,WSW,256,8.0,16.0,26,0.00,,,0.00,924.000000,,2013-07-04 22:33:00,
2013-07-04 16:43:00,86.0,47.0,-100.00,WSW,256,8.0,16.0,26,0.00,,,0.00,924.000000,,2013-07-04 22:43:00,
2013-07-04 16:52:00,86.0,47.0,-100.00,WSW,256,8.0,16.0,26,0.00,,,0.00,924.000000,,2013-07-04 22:52:00,
2013-07-04 17:23:00,81.0,46.0,-100.00,SW,214,9.0,18.0,29,0.00,,,0.00,705.000000,,2013-07-04 23:23:00,
2013-07-04 17:33:00,81.0,46.0,-100.00,SW,214,9.0,18.0,29,0.00,,,0.00,705.000000,,2013-07-04 23:33:00,
2013-07-04 17:42:00,81.0,46.0,-100.00,SW,214,9.0,18.0,29,0.00,,,0.00,705.000000,,2013-07-04 23:42:00,
2013-07-04 17:52:00,81.0,46.0,-100.00,SW,214,9.0,18.0,29,0.00,,,0.00,705.000000,,2013-07-04 23:52:00,
2013-07-04 18:52:00,70.0,50.0,-100.00,SE,133,14.0,23.0,50,0.00,,,0.00,190.000000,,2013-07-05 00:52:00,
2013-07-04 19:22:00,68.0,50.0,-100.00,SE,134,9.0,20.0,53,0.00,,,0.00,227.000000,,2013-07-05 01:22:00,
2013-07-04 19:32:00,68.0,50.0,-100.00,SE,134,9.0,20.0,53,0.00,,,0.00,227.000000,,2013-07-05 01:32:00,
2013-07-04 19:42:00,68.0,50.0,-100.00,SE,134,9.0,20.0,53,0.00,,,0.00,227.000000,,2013-07-05 01:42:00,
2013-07-04 19:52:00,68.0,50.0,-100.00,SE,134,9.0,20.0,53,0.00,,,0.00,227.000000,,2013-07-05 01:52:00,
2013-07-04 20:32:00,66.0,52.0,-100.00,NNE,23,8.0,19.0,61,0.00,,,0.00,166.000000,,2013-07-05 02:32:00,
2013-07-04 20:42:00,66.0,52.0,-100.00,NNE,23,8.0,19.0,61,0.00,,,0.00,166.000000,,2013-07-05 02:42:00,
2013-07-04 20:52:00,66.0,52.0,-100.00,NNE,23,8.0,19.0,61,0.00,,,0.00,166.000000,,2013-07-05 02:52:00,
2013-07-04 21:22:00,63.0,53.0,-100.00,North,352,7.0,12.0,69,0.00,,,0.00,29.000000,,2013-07-05 03:22:00,
2013-07-04 21:32:00,63.0,53.0,-100.00,North,352,7.0,12.0,69,0.00,,,0.00,29.000000,,2013-07-05 03:32:00,
2013-07-04 21:42:00,63.0,53.0,-100.00,North,352,7.0,12.0,69,0.00,,,0.00,29.000000,,2013-07-05 03:42:00,
2013-07-04 21:51:00,63.0,53.0,-100.00,North,352,7.0,12.0,69,0.00,,,0.00,29.000000,,2013-07-05 03:51:00,
2013-07-04 22:22:00,62.0,52.0,-100.00,NE,49,6.0,12.0,71,0.00,,,0.00,1.000000,,2013-07-05 04:22:00,
2013-07-04 22:33:00,62.0,52.0,-100.00,NE,49,6.0,12.0,71,0.00,,,0.00,1.000000,,2013-07-05 04:33:00,
2013-07-04 22:43:00,62.0,52.0,-100.00,NE,49,6.0,12.0,71,0.00,,,0.00,1.000000,,2013-07-05 04:43:00,
2013-07-04 22:53:00,62.0,52.0,-100.00,NE,49,6.0,12.0,71,0.00,,,0.00,1.000000,,2013-07-05 04:53:00,
2013-07-04 23:21:00,59.0,51.0,-100.00,West,265,3.0,6.0,74,0.00,,,0.00,1.000000,,2013-07-05 05:21:00,
2013-07-04 23:33:00,59.0,51.0,-100.00,West,265,3.0,6.0,74,0.00,,,0.00,1.000000,,2013-07-05 05:33:00,
2013-07-04 23:43:00,59.0,51.0,-100.00,West,265,3.0,6.0,74,0.00,,,0.00,1.000000,,2013-07-05 05:43:00,
2013-07-04 23:52:00,59.0,51.0,-100.00,West,265,3.0,6.0,74,0.00,,,0.00,1.000000,,2013-07-05 05:52:00,